Wind_Speed
10 11 35 48 47 53 59 60 56 47 42 39 33 28 22 11 16 12 11 8 4 6 4 9 10 12 12 13 16 15 16 12 15 16 17 17 18 18 16 13 11 12 14
4 3 16 36 51 49 53 60 59 52 43 42 38 31 23 20 17 12 9 8 7 4 9 3 9 15 11 14 16 16 12 13 14 15 16 18 18 17 14 11 13 14 13
3 4 5 14 36 49 50 53 57 52 46 42 40 31 32 23 21 18 14 12 3 8 3 7 10 14 15 16 15 14 10 11 13 13 16 17 18 16 12 11 12 12 13
15 4 10 8 14 37 48 42 44 46 47 43 39 33 22 23 16 15 14 11 14 10 3 8 15 9 12 16 14 10 8 10 11 12 16 16 17 15 12 11 11 10 12
22 7 6 14 11 19 35 46 42 39 39 35 28 31 31 20 22 20 16 13 17 13 12 12 12 7 10 16 13 11 6 10 11 11 13 14 15 14 13 11 11 11 12
20 15 6 9 13 17 25 30 34 34 37 29 29 35 32 29 25 19 16 19 18 11 8 7 3 7 12 16 11 10 8 9 10 10 13 13 14 15 12 11 12 12 10
14 14 2 14 8 17 23 22 23 30 32 31 32 32 34 33 30 27 21 20 21 13 13 5 7 9 14 15 15 10 9 7 11 9 13 11 11 13 11 10 13 15 16
9 10 7 9 15 17 21 22 20 31 32 32 32 33 33 32 26 28 21 26 18 14 14 13 9 8 10 11 12 11 6 6 7 9 9 9 9 9 10 8 10 12 14
9 9 6 1 14 18 20 19 22 32 37 35 35 37 33 30 28 32 26 26 17 16 12 11 8 7 10 12 11 10 6 4 7 10 7 5 7 9 6 5 8 10 12
11 8 8 6 10 18 22 21 24 27 35 39 40 40 35 30 33 28 26 27 25 20 15 17 15 15 11 12 13 8 7 6 9 9 6 3 6 8 6 4 4 8 11
10 6 9 7 10 15 23 25 25 28 34 37 39 40 39 33 29 29 32 26 29 28 21 21 20 16 13 13 10 8 7 8 9 8 7 5 5 7 7 7 4 5 8
7 6 6 7 7 10 15 17 18 27 31 38 41 42 41 39 34 30 28 29 25 23 24 25 21 13 9 12 13 10 11 11 11 9 7 5 6 5 6 5 5 3 6
3 5 3 6 7 7 12 17 17 23 30 37 38 42 44 41 40 38 36 34 29 23 22 17 18 14 11 15 17 15 13 15 11 8 8 4 7 6 6 5 5 2 5
2 2 4 6 7 7 5 11 13 9 12 30 45 49 43 40 40 34 37 27 26 25 24 21 19 21 16 18 19 21 15 16 12 11 8 3 6 7 5 5 5 3 2
6 3 1 5 6 9 7 11 11 6 1 5 23 44 51 43 41 35 31 30 29 29 27 28 25 18 19 21 20 20 17 16 14 13 10 5 5 5 3 2 3 3 3
9 6 4 4 7 10 10 10 9 6 4 6 14 40 39 39 36 39 37 37 35 33 27 26 23 25 26 22 21 21 20 19 15 15 12 7 2 3 1 2 2 4 4
15 12 8 3 7 10 14 11 9 11 10 10 17 29 32 34 36 36 33 28 31 28 26 29 27 24 21 22 21 21 19 18 19 16 14 10 3 2 2 4 3 2 1
21 18 14 10 7 11 10 11 7 3 11 14 14 18 18 23 28 31 31 31 28 24 23 21 22 25 26 21 18 18 19 17 22 19 16 12 5 2 2 2 2 2 2
24 25 21 17 11 11 14 14 12 12 15 16 16 14 17 18 18 19 20 21 22 21 19 18 16 17 18 18 18 19 20 19 20 15 15 15 12 8 7 6 6 7 5
25 28 27 24 18 15 16 16 15 16 16 12 16 14 15 15 17 19 19 20 19 18 17 18 16 15 15 17 14 15 19 21 19 13 14 14 16 13 13 12 9 8 10
24 28 32 29 25 22 19 19 16 15 17 20 17 16 15 19 17 17 17 17 17 16 17 15 12 12 15 14 15 17 17 15 12 12 13 12 13 16 19 18 18 14 11
33 33 37 37 34 29 25 22 21 16 16 21 21 18 18 20 18 17 16 17 18 18 20 15 13 16 15 11 13 15 15 14 10 12 14 13 14 14 14 16 17 18 16
38 38 40 44 41 37 33 28 25 23 18 20 22 24 24 24 23 21 20 20 20 21 18 18 17 15 13 11 13 12 10 9 13 13 16 17 18 18 17 18 18 19 15
50 49 44 45 48 44 41 37 32 30 24 22 20 23 24 24 25 24 23 22 21 21 18 17 14 15 11 11 13 16 16 16 19 20 18 20 22 21 22 25 24 22 22
53 56 51 52 54 53 49 45 39 33 26 22 22 22 23 23 24 25 25 24 23 22 19 17 14 12 10 9 10 16 18 19 20 20 21 23 27 30 29 25 30 30 26
48 51 60 58 59 59 57 51 45 39 31 25 22 21 23 24 23 24 24 24 25 24 21 19 14 16 14 11 12 13 13 14 14 15 16 21 27 26 27 27 27 28 29
Wind_Direction
195 218 226 223 218 220 217 217 221 221 220 221 224 225 225 232 227 232 249 220 231 214 315 319 336 356 1 350 354 341 334 349 356 6 6 16 8 12 9 9 12 9 13
188 308 205 219 219 218 215 217 218 216 217 221 225 225 221 203 217 211 197 201 190 269 289 294 12 2 12 357 343 339 326 344 353 3 11 15 9 14 7 10 23 24 21
183 334 59 205 213 213 211 213 214 214 213 218 224 228 226 219 215 200 202 201 224 210 226 347 333 354 1 354 338 340 336 341 354 5 15 10 11 17 13 17 25 31 32
20 104 40 150 187 203 204 202 206 212 210 216 223 219 217 203 206 208 217 222 203 180 238 330 335 340 3 358 354 345 336 348 355 6 5 11 14 19 19 17 20 28 22
18 36 67 84 147 164 191 204 208 209 202 206 203 204 212 206 182 200 195 194 219 237 260 281 316 348 15 355 350 347 324 336 343 359 4 15 22 22 24 18 16 13 19
35 18 110 119 139 145 159 185 198 203 200 200 199 196 215 206 214 199 196 205 220 262 275 268 20 12 6 357 347 349 313 340 345 344 6 19 27 25 24 27 19 13 29
37 46 35 169 151 165 163 170 188 198 193 198 203 204 211 208 215 227 205 221 235 247 248 264 309 336 346 335 335 331 307 322 334 332 0 24 28 26 21 39 47 50 61
30 46 72 200 178 183 179 187 187 193 186 192 197 208 205 210 206 197 211 213 219 252 243 258 287 326 339 335 334 321 305 321 329 336 350 23 25 37 14 48 49 52 53
21 33 55 129 208 195 198 201 185 189 190 196 204 209 210 205 200 207 219 211 230 246 248 256 270 314 339 323 320 324 302 306 336 330 337 11 10 42 10 46 50 44 44
21 25 27 54 187 207 211 212 204 194 202 202 207 207 206 205 210 213 222 224 229 234 239 256 280 288 301 320 308 314 302 290 307 322 305 345 359 24 18 358 16 21 27
24 31 40 33 91 175 203 215 222 215 205 207 206 209 205 208 216 215 224 219 230 230 243 266 275 279 289 303 285 292 290 298 314 311 277 322 340 2 354 11 7 1 16
22 43 52 80 90 123 173 193 212 219 218 219 213 211 215 215 212 213 218 226 226 235 253 253 261 263 277 293 273 274 284 285 297 279 244 309 339 345 326 347 16 20 30
24 34 117 85 98 150 186 191 202 222 229 226 219 220 218 216 220 223 226 235 244 235 230 235 239 246 274 290 277 265 283 280 281 235 231 304 340 346 319 327 11 351 15
275 13 142 99 87 101 162 184 184 197 228 231 229 226 217 221 224 220 226 230 227 221 222 242 249 260 264 280 274 256 281 272 263 218 228 269 353 353 333 337 24 24 26
270 277 141 137 100 94 125 169 174 166 84 190 207 208 221 219 223 220 221 222 228 234 247 246 257 255 256 275 250 249 278 265 253 212 220 246 358 5 4 7 58 66 98
266 253 281 165 136 109 115 143 163 134 91 113 175 181 205 209 213 221 225 231 235 241 243 251 244 254 263 246 241 251 264 253 229 207 221 238 318 4 199 263 47 88 67
264 253 244 226 165 145 134 134 125 115 104 122 148 183 199 205 209 214 224 223 226 235 244 234 242 239 238 237 243 251 231 237 218 212 221 231 276 349 213 214 242 254 268
257 249 235 229 207 182 160 151 135 135 143 139 142 148 169 188 208 213 211 219 221 227 221 223 223 229 235 240 222 213 224 238 201 212 216 224 231 210 184 283 284 231 269
255 247 238 223 218 208 184 181 175 174 161 145 149 153 166 170 167 172 183 191 199 207 210 207 206 211 219 227 219 221 228 211 203 216 211 219 226 223 219 244 275 285 298
252 237 237 232 211 216 201 198 191 185 178 174 172 158 169 175 178 184 187 190 196 196 195 194 195 204 218 226 214 203 197 198 214 230 228 231 229 238 242 252 278 278 270
258 241 231 224 223 214 215 197 200 195 195 186 186 177 174 178 177 179 183 185 187 186 184 178 193 186 181 179 179 180 194 213 217 222 222 227 232 243 250 254 265 276 274
265 242 233 229 220 215 212 209 190 199 203 195 193 187 188 184 176 173 171 176 180 182 179 204 182 175 179 194 188 182 188 193 191 215 228 235 240 250 260 263 264 267 272
253 243 232 226 226 217 211 207 198 192 200 194 193 186 185 186 183 178 168 166 171 171 168 172 178 180 199 213 213 211 222 219 234 252 253 251 242 247 252 253 260 260 264
254 244 223 224 223 219 216 209 209 195 192 194 194 194 191 184 182 181 173 164 166 169 175 173 178 199 198 214 225 229 239 247 263 265 261 252 247 247 261 263 260 257 261
257 237 225 215 219 220 215 212 210 207 196 192 192 194 195 188 181 180 182 180 177 173 171 174 181 191 200 209 215 231 240 247 255 260 258 258 265 266 266 256 258 262 262
255 235 222 214 216 215 215 213 209 206 206 203 198 196 196 196 190 184 186 185 184 184 182 182 197 251 252 249 252 254 257 250 248 260 275 278 269 266 260 263 257 255 261
Height
10904 10904 10902 10905 10911 10915 10923 10929 10935 10942 10949 10954 10959 10964 10969 10972 10974 10977 10978 10982 10985 10986 10987 10987 10988 10988 10988 10987 10986 10985 10987 10986 10984 10981 10979 10976 10975 10973 10972 10971 10969 10967 10965
10901 10900 10897 10897 10901 10908 10917 10923 10930 10939 10945 10951 10955 10962 10967 10971 10972 10976 10979 10982 10985 10986 10987 10986 10987 10987 10986 10987 10985 10985 10986 10985 10983 10982 10979 10977 10976 10973 10972 10972 10970 10968 10967
10900 10896 10894 10893 10894 10902 10912 10919 10926 10933 10942 10947 10953 10959 10964 10969 10972 10975 10977 10981 10983 10985 10985 10986 10987 10987 10986 10986 10986 10986 10985 10985 10984 10982 10980 10979 10977 10975 10974 10972 10971 10970 10969
10898 10896 10893 10891 10892 10897 10907 10914 10922 10929 10938 10945 10951 10958 10961 10967 10970 10973 10976 10978 10982 10982 10984 10985 10986 10986 10986 10986 10987 10987 10987 10986 10984 10982 10981 10980 10978 10976 10975 10974 10973 10972 10971
10897 10895 10893 10893 10895 10896 10903 10912 10921 10927 10934 10942 10949 10955 10959 10964 10969 10971 10974 10977 10980 10982 10983 10986 10987 10986 10987 10986 10987 10987 10987 10987 10985 10982 10982 10980 10979 10978 10976 10976 10975 10974 10974
10899 10896 10896 10897 10899 10901 10906 10913 10920 10926 10931 10939 10947 10951 10957 10963 10965 10969 10972 10975 10978 10981 10984 10985 10986 10986 10986 10986 10986 10986 10986 10986 10985 10983 10982 10981 10980 10979 10978 10978 10977 10976 10975
10903 10901 10899 10900 10901 10904 10909 10914 10919 10924 10931 10937 10943 10949 10954 10959 10962 10966 10971 10974 10977 10980 10983 10984 10986 10986 10986 10986 10986 10986 10986 10986 10985 10984 10983 10982 10981 10981 10980 10980 10980 10979 10978
10905 10903 10901 10900 10901 10905 10909 10914 10917 10923 10928 10934 10940 10946 10950 10955 10960 10964 10968 10973 10975 10977 10980 10982 10984 10985 10986 10987 10986 10986 10985 10986 10986 10985 10984 10983 10983 10983 10983 10983 10982 10982 10981
10905 10903 10901 10900 10901 10904 10908 10913 10917 10922 10926 10931 10937 10941 10947 10953 10957 10962 10967 10970 10972 10976 10978 10981 10983 10984 10986 10987 10987 10985 10986 10986 10986 10985 10985 10984 10984 10983 10985 10985 10985 10984 10983
10904 10903 10902 10901 10899 10903 10907 10912 10916 10920 10924 10928 10933 10938 10944 10949 10955 10959 10963 10967 10970 10973 10976 10978 10981 10983 10985 10985 10986 10986 10986 10985 10985 10985 10986 10986 10986 10985 10986 10986 10987 10986 10985
10904 10904 10903 10902 10899 10901 10905 10910 10914 10918 10921 10925 10929 10934 10940 10946 10951 10956 10960 10963 10967 10971 10973 10976 10978 10981 10982 10983 10984 10985 10985 10986 10985 10986 10986 10987 10987 10987 10987 10986 10986 10987 10986
10905 10905 10905 10904 10902 10902 10904 10906 10910 10914 10917 10921 10925 10929 10934 10941 10947 10952 10956 10960 10963 10967 10970 10973 10976 10979 10980 10981 10982 10983 10985 10985 10985 10985 10987 10987 10987 10987 10987 10986 10986 10987 10987
10906 10905 10905 10905 10904 10902 10903 10905 10907 10910 10912 10914 10917 10923 10928 10934 10941 10946 10951 10955 10958 10962 10966 10970 10972 10976 10977 10978 10980 10981 10982 10983 10983 10984 10985 10987 10987 10987 10986 10985 10986 10986 10988
10907 10906 10904 10904 10903 10901 10902 10903 10905 10906 10905 10903 10908 10914 10922 10928 10936 10941 10947 10950 10954 10958 10961 10966 10968 10971 10973 10975 10977 10979 10980 10981 10982 10983 10985 10986 10986 10986 10986 10986 10985 10986 10987
10907 10906 10904 10903 10903 10902 10902 10903 10904 10903 10899 10895 10897 10906 10914 10923 10930 10936 10942 10947 10951 10955 10958 10961 10963 10965 10968 10970 10973 10976 10978 10979 10980 10982 10983 10985 10985 10985 10986 10987 10986 10986 10987
10906 10906 10906 10903 10903 10902 10902 10903 10903 10902 10899 10895 10895 10903 10910 10919 10926 10932 10938 10943 10946 10950 10952 10955 10957 10960 10962 10965 10969 10971 10974 10975 10978 10980 10982 10983 10984 10985 10986 10986 10986 10986 10987
10902 10905 10906 10906 10903 10903 10902 10902 10903 10901 10901 10900 10900 10905 10910 10916 10921 10926 10933 10937 10942 10944 10946 10949 10952 10955 10958 10961 10964 10966 10969 10972 10975 10977 10980 10982 10983 10983 10984 10985 10986 10986 10987
10900 10902 10903 10905 10904 10902 10903 10902 10902 10903 10902 10903 10905 10907 10910 10913 10918 10923 10928 10933 10937 10939 10941 10945 10948 10951 10954 10956 10958 10962 10965 10967 10970 10974 10977 10979 10981 10982 10983 10985 10986 10987 10986
10898 10898 10901 10902 10903 10902 10902 10902 10902 10902 10903 10902 10905 10908 10910 10913 10916 10920 10925 10928 10932 10936 10939 10941 10944 10947 10950 10953 10955 10958 10962 10965 10969 10972 10975 10977 10978 10980 10981 10982 10985 10985 10985
10894 10895 10897 10899 10900 10901 10901 10900 10900 10901 10902 10902 10904 10905 10908 10911 10914 10918 10922 10925 10929 10933 10936 10938 10942 10945 10949 10951 10953 10956 10960 10964 10968 10970 10972 10974 10976 10978 10979 10980 10982 10983 10983
10890 10891 10891 10892 10896 10898 10898 10897 10898 10899 10900 10901 10903 10904 10905 10910 10913 10916 10920 10923 10927 10931 10934 10938 10940 10943 10946 10949 10952 10956 10960 10963 10966 10969 10971 10972 10973 10975 10975 10977 10979 10979 10980
10879 10885 10883 10885 10886 10891 10894 10895 10894 10896 10897 10897 10899 10901 10903 10907 10910 10914 10917 10920 10923 10928 10932 10937 10940 10943 10947 10950 10953 10956 10959 10962 10964 10966 10967 10969 10970 10971 10972 10973 10974 10975 10976
10867 10871 10876 10877 10881 10884 10888 10890 10891 10891 10894 10895 10896 10897 10900 10903 10908 10912 10915 10918 10921 10926 10930 10934 10938 10943 10946 10949 10952 10955 10957 10961 10961 10964 10965 10966 10967 10967 10968 10969 10971 10971 10971
10850 10856 10860 10865 10870 10876 10882 10884 10886 10886 10890 10895 10897 10898 10899 10900 10904 10909 10912 10916 10919 10924 10928 10932 10937 10940 10945 10948 10949 10952 10954 10955 10956 10958 10960 10962 10963 10963 10963 10963 10965 10967 10967
10823 10832 10842 10849 10856 10865 10869 10876 10882 10887 10891 10895 10898 10899 10901 10902 10903 10906 10909 10912 10917 10921 10926 10931 10935 10939 10942 10945 10947 10949 10950 10952 10953 10955 10955 10957 10958 10958 10958 10958 10958 10959 10960
10800 10810 10823 10833 10842 10849 10857 10864 10873 10880 10887 10893 10897 10899 10901 10903 10904 10905 10908 10911 10915 10919 10923 10928 10932 10937 10939 10942 10946 10948 10948 10948 10949 10950 10952 10953 10951 10952 10950 10951 10952 10953 10954